Location: Wharf Road Observatory
(44.7802°N, 65.6070°W)
Time: 11:55:26
(UTC-03:00)

X-37B - Visible Passes

Search period start: 21 September 2023 00:00
Search period end: 01 October 2023 00:00
Orbit: 277 x 277 km, 45.0° (Epoch: 01 November)

Date Brightness Start Highest point End Pass type
(mag) Time Alt. Az. Time Alt. Az. Time Alt. Az.
21 Sep -0.2 05:49:08 54° WSW 05:49:35 85° S 05:52:03 10° E visible
22 Sep -0.2 05:49:50 54° W 05:50:17 83° N 05:52:44 10° E visible
23 Sep -0.2 05:50:32 54° WNW 05:50:59 81° N 05:53:27 10° E visible
24 Sep -0.2 05:51:17 57° W 05:51:41 90° SSE 05:54:08 10° E visible
25 Sep -0.2 05:52:05 60° WSW 05:52:22 71° SSW 05:54:48 10° ESE visible
26 Sep 0.2 05:52:57 48° SSW 05:53:01 48° SSW 05:55:24 10° ESE visible
27 Sep 1.1 05:53:56 30° S 05:53:56 30° S 05:55:52 10° SE visible
28 Sep 2.1 05:55:03 17° S 05:55:03 17° S 05:56:06 10° SSE visible
